Location: Beadle
(51.4667°N, 109.0000°W)
Time: 23:24:53
(UTC+00:00)

deb Explorer IX - All Passes

Search period start: 28 May 2022 00:00
Search period end: 07 June 2022 00:00
Orbit: 535 x 1070 km, 38.8° (Epoch: 27 May)

Date Brightness Start Highest point End Pass type
(mag) Time Alt. Az. Time Alt. Az. Time Alt. Az.
28 May - 17:55:04 10° SSW 17:59:46 20° SSE 18:04:11 10° ESE daylight
28 May - 19:40:10 10° SW 19:45:27 25° S 19:50:15 10° SE daylight
28 May - 21:26:43 10° WSW 21:31:00 19° SSW 21:34:55 10° SSE daylight
29 May - 17:25:51 10° SSW 17:30:36 20° SSE 17:35:06 10° ESE daylight
29 May - 19:10:50 10° SW 19:16:17 26° S 19:21:16 10° SE daylight
29 May - 20:57:18 10° WSW 21:01:54 21° SSW 21:06:04 10° SSE daylight
30 May - 16:56:38 10° SSW 17:01:24 19° SSE 17:05:57 10° ESE daylight
30 May - 18:41:30 10° SW 18:47:06 27° S 18:52:15 10° ESE daylight
30 May - 20:27:53 10° WSW 20:32:45 22° SSW 20:37:11 10° SSE daylight
31 May - 16:27:25 10° SSW 16:32:09 19° SSE 16:36:45 10° ESE daylight
31 May - 18:12:10 10° SW 18:17:51 27° S 18:23:10 10° ESE daylight
31 May - 19:58:27 10° WSW 20:03:33 23° SSW 20:08:14 10° SE daylight
31 May - 21:47:19 10° SW 21:48:45 11° SW 21:50:10 10° SSW daylight
01 Jun - 15:58:13 10° SSW 16:02:54 19° SSE 16:07:29 10° ESE daylight
01 Jun - 17:42:49 10° SW 17:48:35 27° S 17:54:01 10° ESE daylight
01 Jun - 19:29:01 10° WSW 19:34:19 24° SSW 19:39:14 10° SE daylight
01 Jun - 21:17:18 10° SW 21:19:36 12° SSW 21:21:48 10° SSW daylight
02 Jun - 15:29:02 10° SSW 15:33:37 18° SSE 15:38:09 10° ESE daylight
02 Jun - 17:13:29 10° SW 17:19:17 27° S 17:24:50 10° ESE daylight
02 Jun - 18:59:35 10° WSW 19:05:03 25° SSW 19:10:11 10° SE daylight
02 Jun - 20:47:29 10° WSW 20:50:24 13° SSW 20:53:10 10° S daylight
03 Jun - 14:59:53 10° SSW 15:04:19 18° SSE 15:08:45 10° ESE daylight
03 Jun - 16:44:09 10° SW 16:49:58 27° S 16:55:37 10° ESE daylight
03 Jun - 18:30:08 10° WSW 18:35:45 26° SSW 18:41:03 10° SE daylight
03 Jun - 20:17:47 10° WSW 20:21:10 14° SSW 20:24:24 10° S daylight
04 Jun - 14:30:44 10° S 14:35:00 17° SSE 14:39:18 10° ESE daylight
04 Jun - 16:14:49 10° SW 16:20:36 27° S 16:26:18 10° ESE daylight
04 Jun - 18:00:42 10° WSW 18:06:25 27° S 18:11:53 10° SE daylight
04 Jun - 19:48:07 10° WSW 19:51:53 15° SSW 19:55:30 10° S daylight
05 Jun - 14:01:37 10° S 14:05:40 16° SSE 14:09:47 10° ESE daylight
05 Jun - 15:45:29 10° SW 15:51:14 27° S 15:56:57 10° ESE daylight
05 Jun - 17:31:16 10° WSW 17:37:03 27° S 17:42:39 10° SE daylight
05 Jun - 19:18:29 10° WSW 19:22:34 16° SSW 19:26:31 10° S daylight
06 Jun - 13:32:33 10° S 13:36:19 15° SSE 13:40:11 10° ESE daylight
06 Jun - 15:16:11 10° SW 15:21:50 27° S 15:27:34 10° ESE daylight
06 Jun - 17:01:50 10° WSW 17:07:39 28° S 17:13:23 10° SE daylight
06 Jun - 18:48:52 10° WSW 18:53:14 17° SSW 18:57:27 10° SSE daylight
